Regional Weather Roundup
Issued by NWS Charleston, SC

Home | Current Version | Previous Version | Text Only | Print | Product List | Glossary On
Versions: 1 2 3 4 5 6 7 8 9 10 11 12 13 14 15 16 17 18 19 20 21 22 23 24 25 26 27 28 29 30 31 32 33 34 35 36 37 38 39 40 41 42 43 44 45 46 47 48 49 50
000
ASUS42 KCHS 251828
RWRCHS

REGIONAL WEATHER ROUNDUP
NATIONAL WEATHER SERVICE CHARLESTON SC
200 PM EDT THU AUG 25 2016

NOTE: "FAIR" INDICATES FEW OR NO CLOUDS BELOW 12,000 FEET WITH NO
SIGNIFICANT WEATHER AND/OR OBSTRUCTIONS TO VISIBILITY.

NOT ALL STATIONS ARE QUALITY CONTROLLED. USE DATA WITH CAUTION...
ESPECIALLY DEWPOINT OBSERVATIONS.

SCZ027-030-031-034>040-042>050-251900-
...SOUTHEAST SOUTH CAROLINA...

CITY           SKY/WX    TMP DP  RH WIND       PRES   REMARKS
N CHARLESTON   MOSUNNY   91  66  43 N6        30.13F HX  93
6HR MIN TEMP:  74; 6HR MAX TEMP:  91;

WATERFRONT PRK   N/A     85  73  67 SE13      30.12F HX  92
MOUNT PLEASANT FAIR      88  73  62 E6        30.13F HX  96
JOHNS ISLAND   FAIR      86  73  66 E12       30.13F HX  93
PINOPOLIS        N/A     84  68  58 CALM      30.08F
MONCKS CORNER  FAIR      86  64  48 CALM      30.13F
SUMMERVILLE    FAIR      90  63  40 NE5       30.14F HX  90
BEAUFORT MCAS  MOSUNNY   92  63  38 VRB3      30.14F HX  93
6HR MIN TEMP:  73; 6HR MAX TEMP:  92;

BEAUFORT ARPT  FAIR      88  64  45 NE7       30.12F
HILTON HEAD IS MOSUNNY   93  68  43 NE7G13    30.14F HX  97
WALTERBORO     CLEAR     91  59  33 E9        30.14F HX  90
ALLENDALE      FAIR      90  63  40 CALM      30.12F HX  90

...SOUTHERN MIDLANDS AND PEE DEE...

CITY           SKY/WX    TMP DP  RH WIND       PRES   REMARKS
GEORGETOWN     FAIR      86  72  62 SE12      30.14F HX  92
KINGSTREE        N/A     90  61  37 E8        30.13F
ORANGEBURG     MOSUNNY   90  64  42 VRB3      30.14F HX  91
6HR MIN TEMP:  69; 6HR MAX TEMP:  90;

BARNWELL       NOT AVBL
AIKEN          FAIR      88  66  48 S6        30.18F HX  90
MANNING        FAIR      88  64  45 E7        30.13F
COLUMBIA       PTSUNNY   91  66  43 VRB6      30.13F HX  93
6HR MIN TEMP:  70; 6HR MAX TEMP:  94;

SUMTER         SUNNY     90  67  46 VRB2      30.12F HX  92
6HR MIN TEMP:  69; 6HR MAX TEMP:  90; 6HR PCP: TRACE;

FLORENCE       SUNNY     91  64  40 E9        30.14F HX  92
6HR MIN TEMP:  73; 6HR MAX TEMP:  91;

MYRTLE BEACH   MOSUNNY   88  66  48 SE12      30.16F HX  90
N MYRTLE BEACH SUNNY     85  71  63 S10       30.13F HX  90
6HR MIN TEMP:  72; 6HR MAX TEMP:  86;


$$

GAZ063-065-086>088-099>101-113>116-118-119-134>141-150-251900-
...SOUTHEAST GEORGIA...

CITY           SKY/WX    TMP DP  RH WIND       PRES   REMARKS
SAVANNAH ARPT  PTSUNNY   89  64  43 VRB3      30.13F HX  90
6HR MIN TEMP:  71; 6HR MAX TEMP:  92;

HUNTER AAF     MOSUNNY   87  73  61 N6        30.10F HX  94
6HR MIN TEMP:  73; 6HR MAX TEMP:  89;

FORT STEWART   MOSUNNY   88  68  51 VRB1      30.10F HX  92
6HR MIN TEMP:  72; 6HR MAX TEMP:  88;

STATESBORO     SUNNY     92  65  41 NE6       30.14F HX  94
SYLVANIA       NOT AVBL
CLAXTON        FAIR      92  66  42 N8        30.13F HX  94

...CSRA...CENTRAL AND FAR SOUTHEAST GEORGIA...

CITY           SKY/WX    TMP DP  RH WIND       PRES   REMARKS
THOMSON        PTSUNNY   91  72  53 MISG      30.19F HX  99
AUGUSTA-BUSH   SUNNY     91  67  44 N7        30.13F HX  94
6HR MIN TEMP:  72; 6HR MAX TEMP:  91;

AUGUSTA-DANIEL SUNNY     90  66  45 W5        30.15F HX  92
SWAINSBORO     FAIR      91  63  38 E8        30.14F HX  92
VIDALIA        MOSUNNY   90  70  51 E9G18     30.14F HX  95
EASTMAN        FAIR      91  50  23 NE12      30.15F
HAZLEHURST     FAIR      91  64  39 E12G18    30.12F HX  92
ALMA           MOSUNNY   88  63  43 NE8       30.13F
6HR MIN TEMP:  71; 6HR MAX TEMP:  88;

WAYCROSS         N/A     91  67  46 E3        30.11F HX  94
JESUP          MOCLDY    90  73  58 E8        30.12F HX  98
BAXLEY         FAIR      90  68  48 E10       30.12F HX  93
BRUNSWICK      CLOUDY    86  75  70 NE16      30.12F HX  95
SAINT SIMONS   CLOUDY    85  73  67 NE18      30.12F HX  91
6HR MIN TEMP:  77; 6HR MAX TEMP:  88;


$$

SCZ027-028-034-036>038-045-046-048>050-GAZ119-141-251900-
...LAKE AND SUPPLEMENTAL COASTAL OBSERVATIONS...

STATION/POSITION TIME  TEMP    WIND        PRES    WAVE   SWELL
                       AIR SEA DIR/SP/G            HT/PER HT/PER/DIR
                 (UTC) (F)     (DEG/KT/KT) (MB)    (FT/S) (FT/S/D)
WINYAH BAY       1700   82      80/  8     1020.0
LAKE MURRAY      1700   86     180/  5/  7 1020.7F
ACE BASIN NERRS  1700   90      30/  2     1021.0F
FORT PULASKI     1800   84 85   70/ 11/ 13 1020.8F
SAPELO ISLAND    1800   87      20/ 12     1020.0F

$$

ANZ835-935-AMZ111-154-330-350-352-354-370-450-454-472-251900-
...C-MAN AND BUOY OBSERVATIONS...

STATION/POSITION TIME  TEMP    WIND        PRES    WAVE   SWELL
                       AIR SEA DIR/SP/G            HT/PER HT/PER/DIR
                 (UTC) (F)     (DEG/KT/KT) (MB)    (FT/S) (FT/S/D)
BUOY 41004       1750   82 84   40/ 10/ 10 1019.8F   3/10   3/ 90/10
BUOY 41008       1750   82 85   40/ 17/ 19 1019.6F   4/ 5   2/140/11
FOLLY BEACH CMAN 1800   81     100/ 11/ 12 1020.9F
CAPERS NEARSHORE 1708   81 84   80/ 14/ 17 1020.7F
FRIPP NEARSHORE  1808   83 86   70/ 10/ 14 1019.6F


STATION/POSITION TIME  TEMP    WIND        PRES    WAVE   SWELL
                       AIR SEA DIR/SP/G            HT/PER HT/PER/DIR
                 (UTC) (F)     (DEG/KT/KT) (MB)    (FT/S) (FT/S/D)
5E ST. MARYS GA  1801      84                N/A     4/11   2/ 90/11
FRYING PAN BUOY  1800   82 85   50/ 10/ 14 1020.0F
BUOY 41025       1750   81 85   50/  6/  8 1021.0F   3/10   3/110/10
CAPE LOOKOUT NC  1800   81      80/  6/  7 1020.4F
BUOY 41002       1750   82 84   50/ 14/ 17 1018.6F   5/ 8   3/100/ 8
BUOY 41010       NOT AVBL
ST AUGUSTINE FL  1800   79 84   10/ 20/ 22 1019.9F


$$




USA.gov is the U.S. government's official web portal to all federal, state and local government web resources and services.